EW7070 Weather Reports


Display with metric or nautical units.
time (UTC)temp
F
wind
direction
speed
MPH
gust
MPH
rain 1hr
in
rain 24hr
in
rain mn
in
humidity
%
barometer
mb
20260509091648 42 249 0.0 0.0 0.00 0.00 0.00 95 1016.0
20260509091143 41 241 0.0 0.0 0.00 0.00 0.00 95 1015.8
20260509090643 41 241 0.0 0.0 0.00 0.00 0.00 95 1015.6
20260509090113 41 230 0.0 0.0 0.00 0.00 0.00 95 1015.5
20260509085827 41 230 0.0 0.0 0.00 0.00 0.00 95 1015.3
20260509085044 42 230 0.0 0.0 0.00 0.00 0.00 95 1015.2
20260509084516 42 230 0.0 0.0 0.00 0.00 0.00 95 1015.2
20260509084009 42 187 0.0 0.0 0.00 0.00 0.00 95 1015.1
20260509083743 42 187 0.0 0.0 0.00 0.00 0.00 95 1015.1
20260509082943 42 187 0.0 0.0 0.00 0.00 0.00 95 1015.1
20260509082432 42 196 0.0 0.0 0.00 0.00 0.00 95 1015.1
20260509081922 42 266 0.0 0.0 0.00 0.00 0.00 95 1015.1
20260509081415 42 266 0.0 0.0 0.00 0.00 0.00 95 1015.1
20260509080905 42 266 0.0 0.0 0.00 0.00 0.00 95 1015.1
20260509080340 43 266 0.0 0.0 0.00 0.00 0.00 95 1015.2
20260509075840 43 266 0.0 0.0 0.00 0.00 0.00 95 1015.1
20260509075336 42 266 0.0 0.0 0.00 0.00 0.00 95 1015.1
20260509074825 42 266 0.0 0.0 0.00 0.00 0.00 94 1015.1
20260509074311 42 289 0.0 0.0 0.00 0.00 0.00 94 1014.9
20260509074038 43 289 0.0 0.0 0.00 0.00 0.00 94 1014.9
20260509073524 43 289 0.0 0.0 0.00 0.00 0.00 94 1014.9
20260509072739 43 289 0.0 0.0 0.00 0.00 0.00 94 1015.0
20260509072235 43 258 0.0 0.0 0.00 0.00 0.00 94 1015.1
20260509071735 43 258 0.0 0.0 0.00 0.00 0.00 94 1015.1
20260509071237 43 281 0.0 0.0 0.00 0.00 0.00 93 1015.0
20260509070723 43 246 0.0 0.0 0.00 0.00 0.00 93 1015.1
20260509070220 43 246 0.0 0.0 0.00 0.00 0.00 93 1015.1
20260509065938 43 246 0.0 0.0 0.00 0.00 0.00 93 1015.1
20260509065155 44 246 0.0 0.0 0.00 0.00 0.00 93 1015.1
20260509064627 44 246 0.0 0.0 0.00 0.00 0.00 93 1015.1
20260509064124 44 246 0.0 0.0 0.00 0.00 0.00 93 1015.0
20260509063624 44 246 0.0 0.0 0.00 0.00 0.00 93 1015.0
20260509063125 44 246 0.0 0.0 0.00 0.00 0.00 93 1014.9
20260509062626 44 246 0.0 0.0 0.00 0.00 0.00 93 1015.0
20260509062057 44 246 0.0 0.0 0.00 0.01 0.00 93 1014.9
20260509061533 44 246 0.0 0.0 0.00 0.02 0.00 93 1014.5
20260509061027 45 225 0.0 0.0 0.00 0.03 0.00 93 1014.4
20260509060456 45 245 0.0 0.0 0.00 0.04 0.00 93 1014.2
20260509055942 45 245 0.0 0.0 0.00 0.06 0.00 93 1014.2
20260509055418 45 187 0.0 0.0 0.00 0.07 0.00 93 1014.2
20260509054915 45 275 0.0 0.0 0.00 0.08 0.00 93 1014.2
20260509054414 45 275 0.0 0.0 0.00 0.10 0.00 93 1014.2
20260509053903 45 275 0.0 0.0 0.00 0.11 0.00 92 1014.0
20260509053401 45 275 0.0 0.0 0.00 0.12 0.00 91 1013.9
20260509052850 45 217 0.0 0.0 0.00 0.16 0.00 91 1013.8
20260509052349 45 177 0.0 0.0 0.00 0.18 0.00 91 1014.0
20260509051849 46 182 0.0 0.0 0.00 0.18 0.00 91 1013.9
20260509051346 46 182 0.0 0.0 0.00 0.18 0.00 92 1013.6
20260509051107 46 182 0.0 0.0 0.00 0.18 0.00 91 1013.3
20260509050543 46 92 0.0 0.0 0.00 0.18 0.00 91 1013.2
20260509045810 46 92 0.0 0.0 0.00 0.18 0.00 91 1013.2
20260509045323 46 92 0.0 0.0 0.00 0.18 0.00 90 1013.3
20260509045310 46 92 0.0 0.0 0.00 0.18 0.00 90 1013.4
20260509044255 47 92 0.0 0.0 0.00 0.18 0.00 90 1013.3
20260509043744 47 262 0.0 0.0 0.00 0.18 0.00 89 1013.4
20260509043231 47 272 0.0 0.0 0.00 0.18 0.00 89 1013.6
20260509042731 47 248 0.0 0.0 0.00 0.18 0.00 89 1013.8
20260509042230 47 258 0.0 0.0 0.00 0.29 0.00 89 1013.7
20260509042223 47 258 0.0 0.0 0.00 0.20 0.00 89 1013.6
20260509041223 47 253 0.0 0.0 0.00 0.29 0.00 89 1013.6
20260509040716 48 287 0.0 0.0 0.00 0.29 0.00 89 1013.4
20260509040446 48 287 0.0 0.0 0.00 0.29 0.00 88 1013.3
20260509040329 48 287 0.0 0.0 0.00 0.29 0.00 88 1013.2
20260509035946 48 287 0.0 0.0 0.00 0.29 0.00 88 1013.2
20260509035212 48 287 0.0 0.0 0.00 0.29 0.00 88 1013.1
20260509034714 49 77 0.0 0.0 0.00 0.29 0.00 87 1012.9
20260509034210 49 77 0.0 0.0 0.00 0.29 0.00 86 1013.0
20260509033708 49 272 0.0 0.0 0.00 0.29 0.00 86 1013.1
20260509033147 49 272 0.0 0.0 0.00 0.29 0.00 86 1013.0
20260509032645 50 271 0.0 0.0 0.00 0.29 0.00 85 1012.8
20260509032134 50 271 0.0 0.0 0.00 0.30 0.00 85 1012.8
20260509031634 50 271 0.0 0.0 0.00 0.30 0.00 85 1012.7
20260509031120 50 271 0.0 0.0 0.00 0.30 0.00 85 1012.8
20260509030559 51 271 0.0 0.0 0.00 0.30 0.00 83 1012.7
20260509030049 51 271 0.0 0.0 0.00 0.30 0.00 83 1012.5
20260509025758 51 271 0.0 0.0 0.00 0.30 0.30 83 1012.7
20260509024959 51 271 0.0 0.0 0.00 0.30 0.30 82 1012.7
20260509024437 52 271 0.0 0.0 0.00 0.30 0.30 82 1012.5
20260509023938 52 257 0.0 0.0 0.00 0.30 0.30 82 1012.5
20260509023423 52 246 0.0 0.0 0.00 0.30 0.30 82 1012.3
20260509022913 52 230 0.0 0.0 0.00 0.30 0.30 81 1012.3
20260509022411 53 212 0.0 0.0 0.00 0.30 0.30 80 1011.9
20260509021913 53 212 0.0 0.0 0.00 0.30 0.30 79 1011.7
20260509021409 54 242 0.0 0.0 0.00 0.31 0.30 78 1011.8
20260509020843 54 242 0.0 0.0 0.00 0.32 0.30 78 1011.8
20260509020339 54 242 0.0 0.0 0.00 0.33 0.30 78 1011.7
20260509015836 55 242 0.0 0.0 0.00 0.37 0.30 77 1011.5
20260509015328 55 242 0.0 0.0 0.00 0.38 0.30 77 1011.7
20260509014823 55 242 0.0 0.0 0.00 0.38 0.30 77 1011.6
20260509014319 54 218 0.0 0.0 0.00 0.38 0.30 76 1011.5
20260509013813 55 256 0.0 0.0 0.00 0.38 0.30 75 1011.1
20260509013246 55 289 0.0 0.0 0.00 0.38 0.30 76 1010.8
20260509012721 56 296 0.0 0.0 0.00 0.38 0.30 74 1010.9
20260509012153 57 296 0.0 0.0 0.00 0.38 0.30 73 1010.7
20260509011625 58 296 0.0 0.0 0.00 0.38 0.30 73 1010.8
20260509011121 59 300 0.0 0.0 0.00 0.38 0.30 72 1010.9
20260509010617 60 263 0.0 0.0 0.00 0.38 0.30 70 1011.0
20260509010107 60 263 0.0 0.0 0.00 0.38 0.30 68 1010.8
20260509005556 61 268 0.0 0.0 0.00 0.38 0.30 66 1010.8
20260509005056 61 191 0.0 0.0 0.00 0.38 0.30 65 1010.7
20260509004557 61 214 0.0 3.0 0.00 0.38 0.30 64 1010.7
20260509004055 62 228 0.0 3.0 0.00 0.38 0.30 62 1010.6
20260509003529 62 230 1.0 3.0 0.00 0.38 0.30 60 1010.7
20260509003024 62 204 2.0 4.0 0.00 0.38 0.30 59 1010.7
20260509002517 62 201 2.0 7.0 0.00 0.38 0.30 59 1010.6
20260509001953 62 287 3.0 7.0 0.00 0.38 0.30 58 1010.5
20260509001728 62 272 3.0 9.0 0.00 0.38 0.30 58 1010.6
20260509001423 62 285 2.0 8.0 0.00 0.38 0.30 58 1010.5
20260509000625 62 249 2.0 7.0 0.00 0.38 0.30 59 1010.5
20260508235907 62 258 2.0 5.0 0.00 0.38 0.30 58 1010.4
20260508235622 62 237 2.0 6.0 0.00 0.38 0.30 59 1010.4
20260508234857 62 217 3.0 9.0 0.00 0.38 0.30 59 1010.4
20260508234332 62 262 3.0 9.0 0.00 0.38 0.30 59 1010.3
20260508233826 62 265 3.0 7.0 0.00 0.38 0.30 59 1010.3
20260508233328 62 308 3.0 7.0 0.00 0.38 0.30 60 1010.3
20260508232804 61 274 3.0 8.0 0.00 0.38 0.30 59 1010.2
20260508232259 60 251 2.0 9.0 0.00 0.38 0.30 61 1010.1
20260508231752 60 349 2.0 6.0 0.00 0.38 0.30 63 1010.1
20260508231225 59 302 2.0 5.0 0.00 0.38 0.30 66 1010.0
20260508230722 57 274 1.0 6.0 0.00 0.38 0.30 71 1009.6
20260508230714 58 279 2.0 6.0 0.00 0.38 0.30 70 1009.8
20260508225648 57 263 0.0 0.0 0.00 0.38 0.30 78 1009.3
20260508225122 57 291 0.0 0.0 0.00 0.38 0.30 83 1009.4
20260508224617 57 291 0.0 0.0 0.00 0.38 0.30 82 1009.5
20260508224348 57 301 0.0 0.0 0.00 0.38 0.30 81 1009.3
20260508223600 57 301 0.0 0.0 0.00 0.38 0.30 81 1009.3
20260508223102 57 301 0.0 0.0 0.00 0.38 0.30 80 1009.3
20260508222541 57 301 0.0 0.0 0.00 0.38 0.30 80 1009.0
20260508222013 57 301 0.0 0.0 0.00 0.38 0.30 78 1009.0
20260508221508 57 301 0.0 0.0 0.00 0.38 0.30 76 1008.8
20260508221212 57 301 0.0 0.0 0.00 0.38 0.30 77 1008.8
20260508220435 58 301 0.0 1.0 0.00 0.38 0.30 75 1008.7
20260508215910 58 280 0.0 3.0 0.00 0.38 0.30 74 1008.6
20260508215344 58 280 1.0 3.0 0.00 0.38 0.30 71 1008.5
20260508215122 59 295 0.0 3.0 0.00 0.38 0.30 70 1008.5
20260508214844 58 283 1.0 3.0 0.00 0.38 0.30 71 1008.5
20260508213816 60 261 0.0 2.0 0.00 0.38 0.30 70 1008.3
20260508213511 60 327 0.0 2.0 0.00 0.38 0.30 66 1008.0
20260508212741 61 305 1.0 3.0 0.00 0.38 0.30 68 1008.0
20260508212232 62 262 1.0 3.0 0.00 0.38 0.30 64 1007.9
20260508211734 63 299 1.0 3.0 0.00 0.38 0.30 62 1007.7
20260508211206 64 283 1.0 3.0 0.00 0.38 0.30 60 1007.7
20260508210928 65 294 0.0 3.0 0.00 0.38 0.30 55 1007.8
20260508210155 65 353 0.0 0.0 0.00 0.38 0.30 54 1007.8
20260508205632 65 353 1.0 5.0 0.00 0.38 0.30 51 1007.8
20260508205104 66 353 1.0 10.0 0.00 0.38 0.30 49 1007.7
20260508204554 66 187 2.0 10.0 0.00 0.38 0.30 50 1007.6
20260508204054 66 285 3.0 8.0 0.00 0.38 0.30 48 1007.5
20260508203552 66 235 4.0 10.0 0.00 0.38 0.30 48 1007.3
20260508203040 67 273 5.0 11.0 0.00 0.38 0.30 47 1007.3
20260508202744 67 287 5.0 10.0 0.00 0.38 0.30 49 1007.2
20260508201946 67 231 4.0 13.0 0.00 0.38 0.30 49 1007.1
20260508201441 68 331 3.0 11.0 0.00 0.38 0.30 48 1007.1
20260508200922 68 337 3.0 8.0 0.00 0.38 0.30 52 1007.2
20260508200424 69 325 2.0 8.0 0.00 0.38 0.30 50 1007.3
20260508195922 69 337 2.0 7.0 0.00 0.38 0.30 50 1007.2
20260508195420 70 340 4.0 9.0 0.00 0.38 0.30 48 1007.2
20260508194920 70 332 4.0 11.0 0.00 0.38 0.30 49 1007.2
20260508194353 70 322 5.0 11.0 0.00 0.38 0.30 49 1007.2
20260508193846 70 345 5.0 10.0 0.00 0.38 0.30 48 1007.2
20260508193615 70 318 5.0 10.0 0.00 0.38 0.30 50 1007.2
20260508192815 71 350 4.0 10.0 0.00 0.38 0.30 48 1007.3
20260508192310 71 4 5.0 9.0 0.00 0.38 0.30 49 1007.3
20260508191744 71 13 4.0 14.0 0.00 0.38 0.30 48 1007.3
20260508191241 71 334 5.0 14.0 0.00 0.38 0.30 48 1007.4
20260508190735 71 4 5.0 14.0 0.00 0.38 0.30 47 1007.3
20260508190208 71 324 5.0 14.0 0.00 0.38 0.30 47 1007.1
20260508185924 71 327 5.0 13.0 0.00 0.38 0.30 47 1007.0
20260508185423 71 332 6.0 14.0 0.00 0.38 0.30 47 1007.0
20260508184654 71 356 6.0 14.0 0.00 0.38 0.30 47 1006.9
20260508184410 71 11 7.0 20.0 0.00 0.38 0.30 47 1006.9
20260508184126 71 312 7.0 13.0 0.00 0.38 0.30 47 1006.9
20260508183055 71 357 8.0 14.0 0.00 0.38 0.30 46 1006.9
20260508182544 71 337 9.0 16.0 0.00 0.38 0.30 45 1006.8
20260508182044 71 312 8.0 17.0 0.00 0.38 0.30 45 1006.9
20260508181545 72 275 6.0 14.0 0.00 0.38 0.30 45 1006.8
20260508181038 72 330 7.0 18.0 0.00 0.38 0.30 46 1006.7
20260508180534 72 343 6.0 18.0 0.00 0.38 0.30 45 1006.6
20260508180032 72 16 5.0 14.0 0.00 0.38 0.30 45 1006.6
20260508175529 72 315 4.0 13.0 0.00 0.38 0.30 44 1006.6
20260508175029 72 290 5.0 13.0 0.00 0.38 0.30 45 1006.6
20260508174502 72 297 6.0 13.0 0.00 0.38 0.30 43 1006.7
20260508173955 72 297 7.0 16.0 0.00 0.38 0.30 44 1006.8
20260508173441 72 291 6.0 16.0 0.00 0.38 0.30 44 1006.8
20260508172941 72 272 6.0 16.0 0.00 0.38 0.30 46 1006.7
20260508172441 72 338 7.0 14.0 0.00 0.38 0.30 48 1006.6
20260508171914 72 1 7.0 15.0 0.00 0.38 0.30 48 1006.6
20260508171415 72 331 7.0 15.0 0.00 0.38 0.30 45 1006.6
20260508170850 72 321 7.0 15.0 0.00 0.38 0.30 47 1006.7
20260508170349 72 338 8.0 20.0 0.00 0.38 0.30 46 1006.7
20260508165845 72 348 7.0 20.0 0.00 0.38 0.30 45 1006.7
20260508165318 72 345 5.0 17.0 0.00 0.38 0.30 46 1006.8
20260508165020 72 333 5.0 13.0 0.00 0.38 0.30 49 1006.7
20260508164223 71 282 6.0 15.0 0.00 0.38 0.30 49 1006.7
20260508163656 71 348 6.0 15.0 0.00 0.38 0.30 48 1006.7
20260508163134 71 302 6.0 16.0 0.00 0.38 0.30 49 1006.8
20260508162621 71 322 7.0 16.0 0.00 0.38 0.30 48 1006.9
20260508162114 70 353 8.0 19.0 0.00 0.38 0.30 49 1006.8
20260508161550 70 348 7.0 19.0 0.00 0.38 0.30 49 1006.9
20260508161048 70 318 5.0 14.0 0.00 0.38 0.30 48 1006.8
20260508160550 70 309 6.0 15.0 0.00 0.38 0.30 48 1007.1
20260508160047 70 305 6.0 18.0 0.00 0.38 0.30 48 1007.1
20260508155548 70 285 6.0 18.0 0.00 0.38 0.30 48 1007.1
20260508155036 70 227 6.0 14.0 0.00 0.38 0.30 47 1007.3
20260508154534 69 330 5.0 14.0 0.00 0.38 0.30 47 1007.4
20260508154027 69 301 5.0 13.0 0.00 0.38 0.30 48 1007.5
20260508153524 69 283 6.0 17.0 0.00 0.38 0.30 50 1007.6
20260508152956 69 319 7.0 17.0 0.00 0.38 0.30 49 1007.7
20260508152446 69 328 5.0 17.0 0.00 0.38 0.30 49 1007.9
20260508151922 69 289 5.0 12.0 0.00 0.38 0.30 52 1007.8
20260508151355 69 337 6.0 13.0 0.00 0.38 0.30 55 1007.8
20260508151057 68 8 7.0 16.0 0.00 0.38 0.30 54 1007.8
20260508150258 68 294 7.0 16.0 0.00 0.38 0.30 52 1008.0
20260508145756 68 353 7.0 15.0 0.00 0.38 0.30 54 1008.1
20260508145225 68 331 7.0 15.0 0.00 0.38 0.30 54 1008.2
20260508144719 68 7 7.0 16.0 0.00 0.38 0.30 54 1008.4
20260508144214 68 320 6.0 16.0 0.00 0.38 0.30 52 1008.3
20260508143710 68 333 5.0 13.0 0.00 0.38 0.30 54 1008.4
20260508143204 67 354 5.0 12.0 0.00 0.38 0.30 56 1008.5
20260508142701 67 352 6.0 13.0 0.00 0.38 0.30 56 1008.7
20260508142150 67 348 7.0 22.0 0.00 0.38 0.30 55 1008.7
20260508141649 67 340 6.0 22.0 0.00 0.38 0.30 57 1008.9
20260508141415 66 8 5.0 13.0 0.00 0.38 0.30 57 1009.0
20260508140913 66 337 7.0 19.0 0.00 0.38 0.30 56 1008.8
20260508140112 66 328 8.0 19.0 0.00 0.38 0.30 57 1008.8
20260508135544 66 139 7.0 24.0 0.00 0.38 0.30 56 1008.8
20260508135251 66 44 5.0 16.0 0.00 0.38 0.30 58 1008.7
20260508134452 66 2 5.0 9.0 0.00 0.38 0.30 62 1008.8
20260508133924 65 288 6.0 16.0 0.00 0.38 0.30 62 1008.9
20260508133423 65 7 6.0 15.0 0.00 0.38 0.30 62 1008.8
20260508132918 65 300 6.0 14.0 0.00 0.38 0.30 60 1008.9
20260508132410 65 331 6.0 16.0 0.00 0.38 0.30 65 1008.7
20260508131910 65 23 7.0 16.0 0.00 0.38 0.30 63 1008.9
20260508131410 65 312 6.0 11.0 0.00 0.38 0.30 63 1008.8
20260508130910 65 339 6.0 16.0 0.00 0.38 0.30 65 1009.0
20260508130345 65 323 5.0 14.0 0.00 0.38 0.30 67 1008.9
20260508125818 65 216 5.0 14.0 0.00 0.38 0.30 69 1008.8
20260508125519 65 281 5.0 14.0 0.00 0.38 0.30 67 1008.9
20260508124723 64 278 4.0 16.0 0.00 0.38 0.30 68 1008.8
20260508124218 64 141 5.0 16.0 0.00 0.38 0.30 66 1008.7
20260508123715 64 322 6.0 15.0 0.00 0.38 0.30 70 1008.6
20260508123440 64 343 6.0 11.0 0.00 0.38 0.30 69 1008.5
20260508122913 64 277 6.0 17.0 0.00 0.38 0.30 68 1008.5
20260508122142 64 326 6.0 16.0 0.00 0.38 0.30 70 1008.3
20260508121634 63 298 5.0 12.0 0.00 0.38 0.30 71 1008.5
20260508121134 63 274 5.0 14.0 0.00 0.38 0.30 71 1008.4
20260508120634 63 345 6.0 14.0 0.00 0.38 0.30 71 1008.6
20260508120132 63 310 6.0 13.0 0.00 0.38 0.30 71 1008.6
20260508115558 62 301 7.0 13.0 0.00 0.38 0.30 71 1008.5
20260508115037 62 355 8.0 17.0 0.00 0.38 0.30 73 1008.4
20260508114507 62 330 8.0 17.0 0.00 0.38 0.30 72 1008.3
20260508113939 62 313 7.0 15.0 0.00 0.38 0.30 74 1008.5
20260508113436 61 264 5.0 14.0 0.00 0.38 0.30 76 1008.5
20260508113142 61 306 4.0 11.0 0.00 0.38 0.30 74 1008.5
20260508112407 61 318 3.0 8.0 0.00 0.38 0.30 74 1008.6
20260508111841 61 330 4.0 8.0 0.00 0.38 0.30 73 1008.7
20260508111322 61 341 5.0 13.0 0.00 0.38 0.30 74 1008.7
20260508110758 61 240 5.0 13.0 0.00 0.38 0.30 73 1008.6
20260508110228 61 321 4.0 13.0 0.00 0.38 0.30 74 1008.5
20260508105705 61 330 5.0 11.0 0.00 0.38 0.30 73 1008.5
20260508105149 61 291 5.0 13.0 0.00 0.38 0.30 74 1008.5
20260508104642 61 17 5.0 14.0 0.00 0.38 0.30 75 1008.4
20260508104128 61 305 5.0 14.0 0.00 0.38 0.30 75 1008.3
20260508103628 61 288 5.0 18.0 0.00 0.38 0.30 77 1008.3
20260508103126 61 56 6.0 18.0 0.00 0.38 0.30 77 1008.2
20260508102617 61 243 3.0 12.0 0.00 0.38 0.30 78 1008.1
20260508102113 61 204 2.0 11.0 0.00 0.38 0.30 81 1007.9
20260508101612 61 287 3.0 11.0 0.00 0.38 0.30 81 1007.9
20260508101113 61 298 6.0 13.0 0.00 0.38 0.30 80 1007.8
20260508100546 61 291 7.0 13.0 0.00 0.38 0.30 80 1007.6
20260508100034 61 272 7.0 13.0 0.00 0.38 0.30 80 1007.6
20260508095531 61 256 6.0 16.0 0.00 0.38 0.30 80 1007.4
20260508095022 61 283 5.0 16.0 0.00 0.38 0.30 80 1007.3
20260508094515 61 41 3.0 11.0 0.00 0.38 0.30 80 1007.2
20260508094217 61 262 2.0 10.0 0.00 0.38 0.30 81 1006.9
20260508093427 61 353 2.0 9.0 0.00 0.38 0.30 81 1006.8
20260508093419 61 291 3.0 9.0 0.00 0.38 0.30 81 1006.7
20260508092648 61 8 2.0 7.0 0.00 0.38 0.30 82 1006.7
20260508091916 61 262 4.0 16.0 0.00 0.38 0.30 82 1006.7